Location: Newark
(34.6283°N, 36.0776°E)
Time: 07:51:13
(UTC+00:00)

A-11 Canister half - Pass Details

Date: 23 September 2019
Orbit: 1527 x 1682 km, 47.3° (Epoch: 22 October)

Event Time Altitude Azimuth Distance (km) Brightness Sun altitude
Rises 22:47:58 0° 207° (SSW) 4,664 - -50.9°
Reaches altitude 10° 22:51:11 10° 201° (SSW) 3,683 - -50.5°
Maximum altitude 22:59:47 44° 132° (SE) 2,008 - -49.5°
Exits shadow 23:04:01 29° 82° (E) 2,537 10.3 -49.0°
Drops below altitude 10° 23:08:32 10° 64° (ENE) 3,749 11.5 -48.4°
Sets 23:11:48 0° 58° (ENE) 4,754 12.2 -47.9°
